#timestamp,LO_Frequency,Hit,Temp,Hum 
1479949215.3,286047094.4,N,0.0,0.0
1479949235.2,286047095.2,N,0.0,0.0
1479949255.0,286047095.2,N,0.0,0.0
1479949255.9,286047095.2,N,0.0,0.0
1479949275.8,286047094.1,N,0.0,0.0
1479949295.6,286047097.2,N,0.0,0.0
1479949315.4,286047097.0,N,0.0,0.0
1479949335.3,286047096.5,N,0.0,0.0
1479949355.1,286047096.5,N,0.0,0.0
1479949375.8,286047096.8,N,0.0,0.0
1479949395.7,286047094.8,N,0.0,0.0
1479949415.5,286047093.2,N,0.0,0.0
1479949435.4,286047092.9,N,0.0,0.0
1479949455.2,286047094.3,N,0.0,0.0
1479949475.0,286047094.3,N,0.0,0.0
1479949475.9,286047094.3,N,0.0,0.0
1479949495.8,286047095.1,N,0.0,0.0
1479949515.6,286047095.2,N,0.0,0.0
1479949535.4,286047094.4,N,0.0,0.0
1479949555.3,286047095.1,N,0.0,0.0
1479949575.1,286047094.4,N,0.0,0.0
1479949595.9,286047097.0,N,0.0,0.0
1479949615.7,286047095.9,N,0.0,0.0
1479949635.5,286047096.3,N,0.0,0.0
1479949655.4,286047096.7,N,0.0,0.0
1479949675.2,286047096.8,N,0.0,0.0
1479949695.0,286047096.8,N,0.0,0.0
1479949696.0,286047096.8,N,0.0,0.0
1479949715.8,286047094.8,N,0.0,0.0
1479949735.6,286047094.6,N,0.0,0.0
1479949755.5,286047092.7,N,0.0,0.0
1479949775.3,286047095.1,N,0.0,0.0
1479949795.1,286047094.7,N,0.0,0.0
1479949815.9,286047097.1,N,0.0,0.0
1479949835.7,286047094.7,N,0.0,0.0
1479949855.6,286047094.6,N,0.0,0.0
1479949875.4,286047096.3,N,0.0,0.0
1479949895.2,286047096.4,N,0.0,0.0
1479949915.1,286047095.8,N,0.0,0.0
1479949916.0,286047095.8,N,0.0,0.0
1479949935.8,286047096.1,N,0.0,0.0
1479949955.6,286047096.6,N,0.0,0.0
1479949975.5,286047094.5,N,0.0,0.0
1479949995.3,286047094.6,N,0.0,0.0
1479950015.2,286047094.5,N,0.0,0.0
1479950035.9,286047095.3,N,0.0,0.0
1479950055.7,286047094.5,N,0.0,0.0
1479950075.6,286047096.3,N,0.0,0.0
1479950095.4,286047098.7,N,0.0,0.0
1479950115.2,286047095.8,N,0.0,0.0
1479950135.1,286047097.2,N,0.0,0.0
1479950136.0,286047097.2,N,0.0,0.0
1479950155.8,286047097.1,N,0.0,0.0
1479950175.7,286047094.1,N,0.0,0.0
1479950195.5,286047096.4,N,0.0,0.0
1479950215.3,286047096.1,N,0.0,0.0
1479950235.2,286047097.0,N,0.0,0.0
1479950255.0,286047097.0,N,0.0,0.0
1479950255.9,286047097.0,N,0.0,0.0
1479950275.8,286047095.8,N,0.0,0.0
1479950295.6,286047098.0,N,0.0,0.0
1479950315.4,286047097.5,N,0.0,0.0
1479950335.3,286047096.9,N,0.0,0.0
1479950355.1,286047096.2,N,0.0,0.0
1479950375.8,286047098.3,N,0.0,0.0
1479950395.7,286047096.9,N,0.0,0.0
1479950415.5,286047096.0,N,0.0,0.0
1479950435.3,286047098.6,N,0.0,0.0
1479950455.2,286047097.8,N,0.0,0.0
1479950475.0,286047100.0,N,0.0,0.0
1479950475.9,286047100.0,N,0.0,0.0
1479950495.8,286047099.5,N,0.0,0.0
1479950515.6,286047099.6,N,0.0,0.0
1479950535.4,286047099.2,N,0.0,0.0
1479950555.3,286047100.1,N,0.0,0.0
1479950575.1,286047097.5,N,0.0,0.0
1479950595.9,286047098.1,N,0.0,0.0
1479950615.7,286047098.0,N,0.0,0.0
1479950635.5,286047098.0,N,0.0,0.0
1479950655.4,286047097.5,N,0.0,0.0
1479950675.2,286047097.8,N,0.0,0.0
1479950695.0,286047100.3,N,0.0,0.0
1479950695.9,286047100.3,N,0.0,0.0
1479950715.8,286047100.2,N,0.0,0.0
1479950735.6,286047100.1,N,0.0,0.0
1479950755.5,286047101.9,N,0.0,0.0
1479950775.3,286047099.0,N,0.0,0.0
1479950795.1,286047102.0,N,0.0,0.0
1479950815.9,286047098.9,N,0.0,0.0
1479950835.7,286047101.9,N,0.0,0.0
1479950855.6,286047102.0,N,0.0,0.0
1479950875.4,286047100.1,N,0.0,0.0
1479950895.2,286047097.6,N,0.0,0.0
1479950915.1,286047099.5,N,0.0,0.0
1479950916.0,286047099.5,N,0.0,0.0
1479950935.8,286047099.5,N,0.0,0.0
1479950955.6,286047099.3,N,0.0,0.0
1479950975.5,286047099.2,N,0.0,0.0
1479950995.3,286047099.8,N,0.0,0.0
1479951015.2,286047099.4,N,0.0,0.0
1479951035.9,286047101.9,N,0.0,0.0
1479951055.7,286047101.8,N,0.0,0.0
1479951075.6,286047102.0,N,0.0,0.0
1479951095.4,286047101.9,N,0.0,0.0
1479951115.2,286047099.3,N,0.0,0.0
1479951135.1,286047101.6,N,0.0,0.0
1479951136.0,286047101.6,N,0.0,0.0
1479951155.8,286047101.7,N,0.0,0.0
1479951175.7,286047101.5,N,0.0,0.0
1479951195.5,286047101.5,N,0.0,0.0
1479951215.3,286047101.3,N,0.0,0.0
1479951235.2,286047101.4,N,0.0,0.0
1479951255.0,286047101.9,N,0.0,0.0
1479951255.9,286047101.9,N,0.0,0.0
1479951275.8,286047099.2,N,0.0,0.0
1479951295.6,286047099.4,N,0.0,0.0
1479951315.4,286047099.0,N,0.0,0.0
1479951335.3,286047099.0,N,0.0,0.0
1479951355.1,286047099.3,N,0.0,0.0
1479951375.9,286047099.4,N,0.0,0.0
1479951395.7,286047101.9,N,0.0,0.0
1479951415.5,286047101.9,N,0.0,0.0
1479951435.4,286047101.4,N,0.0,0.0
1479951455.2,286047099.6,N,0.0,0.0
1479951475.0,286047097.4,N,0.0,0.0
1479951475.9,286047097.4,N,0.0,0.0
1479951495.8,286047099.3,N,0.0,0.0
1479951515.6,286047100.8,N,0.0,0.0
1479951535.5,286047103.2,N,0.0,0.0
1479951555.3,286047102.9,N,0.0,0.0
1479951575.1,286047102.9,N,0.0,0.0
1479951595.9,286047103.4,N,0.0,0.0
1479951615.7,286047100.8,N,0.0,0.0
1479951635.5,286047103.5,N,0.0,0.0
1479951655.4,286047103.5,N,0.0,0.0
1479951675.2,286047101.0,N,0.0,0.0
1479951695.1,286047103.6,N,0.0,0.0
1479951696.0,286047103.6,N,0.0,0.0
1479951715.8,286047103.2,N,0.0,0.0
1479951735.6,286047102.9,N,0.0,0.0
1479951755.5,286047102.8,N,0.0,0.0
1479951775.3,286047103.2,N,0.0,0.0
1479951795.2,286047102.8,N,0.0,0.0
1479951815.9,286047102.1,N,0.0,0.0
1479951835.7,286047104.7,N,0.0,0.0
1479951855.6,286047104.5,N,0.0,0.0
1479951875.4,286047102.1,N,0.0,0.0
1479951895.2,286047102.8,N,0.0,0.0
1479951915.1,286047102.6,N,0.0,0.0
1479951916.0,286047102.6,N,0.0,0.0
1479951935.8,286047102.5,N,0.0,0.0
1479951955.7,286047102.7,N,0.0,0.0
1479951975.5,286047102.9,N,0.0,0.0
1479951995.3,286047103.0,N,0.0,0.0
1479952015.2,286047102.8,N,0.0,0.0
1479952035.0,286047102.8,N,0.0,0.0
1479952035.9,286047102.8,N,0.0,0.0
1479952055.8,286047101.3,N,0.0,0.0
1479952075.6,286047102.0,N,0.0,0.0
1479952095.4,286047100.8,N,0.0,0.0
1479952115.3,286047103.3,N,0.0,0.0
1479952135.1,286047104.7,N,0.0,0.0
1479952155.8,286047104.6,N,0.0,0.0
1479952175.7,286047104.7,N,0.0,0.0
1479952195.5,286047102.6,N,0.0,0.0
1479952215.4,286047102.1,N,0.0,0.0
1479952235.2,286047104.8,N,0.0,0.0
1479952255.0,286047104.5,N,0.0,0.0
1479952255.9,286047104.5,N,0.0,0.0
1479952275.8,286047104.3,N,0.0,0.0
1479952295.6,286047104.0,N,0.0,0.0
1479952315.5,286047102.8,N,0.0,0.0
1479952335.3,286047102.8,N,0.0,0.0
1479952355.1,286047102.2,N,0.0,0.0
1479952375.9,286047104.6,N,0.0,0.0
1479952395.7,286047104.5,N,0.0,0.0
1479952415.5,286047104.6,N,0.0,0.0
1479952435.4,286047104.5,N,0.0,0.0
1479952455.2,286047104.1,N,0.0,0.0
1479952475.1,286047103.7,N,0.0,0.0
1479952476.0,286047103.7,N,0.0,0.0
1479952495.8,286047102.2,N,0.0,0.0
1479952515.6,286047102.1,N,0.0,0.0
1479952535.5,286047104.9,N,0.0,0.0
1479952555.3,286047104.0,N,0.0,0.0
1479952575.2,286047104.1,N,0.0,0.0
1479952595.9,286047104.1,N,0.0,0.0
1479952615.7,286047104.4,N,0.0,0.0
1479952635.6,286047104.6,N,0.0,0.0
1479952655.4,286047104.2,N,0.0,0.0
1479952675.2,286047104.0,N,0.0,0.0
1479952695.1,286047103.7,N,0.0,0.0
1479952696.0,286047103.7,N,0.0,0.0
1479952715.8,286047104.0,N,0.0,0.0
1479952735.7,286047104.2,N,0.0,0.0
1479952755.5,286047104.4,N,0.0,0.0
1479952775.3,286047106.7,N,0.0,0.0
1479952795.2,286047106.0,N,0.0,0.0
